This is the latest recevied weather packets stored in our database for station/object EA5JUX. If no packets are shown the sender has not sent any weather packets the latest 10 day(s).
| Time | Temp. | Humidity | Pressure | Rain* | Wind** | Luminosity | Snow |
|---|---|---|---|---|---|---|---|
| 1787661402 | 31.11° C | 53% | 1012.6 hPa | 0 mm | - | - | - |
| 1787661102 | 30.56° C | 53% | 1012.6 hPa | 0 mm | - | - | - |
| 1787660802 | 30° C | 53% | 1012.9 hPa | 0 mm | - | - | - |
| 1787660502 | 30° C | 54% | 1012.6 hPa | 0 mm | - | - | - |
| 1787660220 | 30° C | 54% | 1012.9 hPa | 0 mm | - | - | - |
| 1787659902 | 30.56° C | 52% | 1012.9 hPa | 0 mm | - | - | - |
| 1787659602 | 30.56° C | 51% | 1013.1 hPa | 0 mm | - | - | - |
| 1787659318 | 31.11° C | 51% | 1012.9 hPa | 0 mm | - | - | - |
| 1787659002 | 30° C | 53% | 1013 hPa | 0 mm | - | - | - |
| 1787658723 | 30.56° C | 52% | 1013 hPa | 0 mm | - | - | - |
| 1787658402 | 30.56° C | 49% | 1013 hPa | 0 mm | - | - | - |
| 1787658102 | 31.67° C | 48% | 1012.8 hPa | 0 mm | - | - | - |
| 1787657802 | 31.11° C | 48% | 1013 hPa | 0 mm | - | - | - |
| 1787657502 | 31.11° C | 46% | 1012.9 hPa | 0 mm | - | - | - |
| 1787657202 | 30.56° C | 47% | 1013.1 hPa | 0 mm | - | - | - |
| 1787656903 | 30.56° C | 45% | 1013.2 hPa | 0 mm | - | - | - |
| 1787656601 | 31.11° C | 47% | 1013.3 hPa | 0 mm | - | - | - |
| 1787656302 | 30.56° C | 45% | 1013.3 hPa | 0 mm | - | - | - |
| 1787656002 | 30.56° C | 47% | 1013.3 hPa | 0 mm | - | - | - |
| 1787655702 | 30° C | 48% | 1013.2 hPa | 0 mm | - | - | - |
| 1787655418 | 30° C | 48% | 1013.1 hPa | 0 mm | - | - | - |
| 1787655102 | 29.44° C | 51% | 1013.1 hPa | 0 mm | - | - | - |
| 1787654819 | 30° C | 50% | 1013.4 hPa | 0 mm | - | - | - |
| 1787654502 | 30° C | 48% | 1013.3 hPa | 0 mm | - | - | - |
| 1787654201 | 30° C | 48% | 1013.7 hPa | 0 mm | - | - | - |
* Rain latest hour (hover to see other rain measurements)
** Current wind speed in m/s (hover to see current wind gust speed)